| time (UTC) | temp C | wind direction | speed KPH | gust KPH | rain 1hr cm | rain 24hr cm | rain mn cm | humidity % | barometer mb |
| 20260507112128 | 10 | 27 | 14.5 | 27.4 | 0.00 | 0.00 | 0.00 | 68 | 1018.6 |
| 20260507111625 | 10 | 24 | 22.5 | 25.7 | 0.00 | 0.00 | 0.00 | 68 | 1018.4 |
| 20260507111122 | 10 | 0 | 22.5 | 25.7 | 0.00 | 0.00 | 0.00 | 68 | 1018.6 |
| 20260507110618 | 10 | 356 | 17.7 | 29.0 | 0.00 | 0.00 | 0.00 | 68 | 1018.4 |
| 20260507110115 | 9 | 28 | 12.9 | 24.1 | 0.00 | 0.00 | 0.00 | 69 | 1018.4 |
| 20260507105612 | 9 | 22 | 14.5 | 24.1 | 0.00 | 0.00 | 0.00 | 69 | 1018.4 |
| 20260507105108 | 9 | 2 | 17.7 | 22.5 | 0.00 | 0.00 | 0.00 | 69 | 1018.3 |
| 20260507104606 | 9 | 10 | 14.5 | 22.5 | 0.00 | 0.00 | 0.00 | 69 | 1018.3 |
| 20260507104102 | 9 | 6 | 17.7 | 24.1 | 0.00 | 0.00 | 0.00 | 69 | 1018.4 |
| 20260507103558 | 9 | 355 | 16.1 | 19.3 | 0.00 | 0.00 | 0.00 | 69 | 1018.4 |
| 20260507103055 | 9 | 18 | 14.5 | 20.9 | 0.00 | 0.00 | 0.00 | 68 | 1018.1 |
| 20260507102551 | 9 | 7 | 19.3 | 24.1 | 0.00 | 0.00 | 0.00 | 68 | 1018.3 |
| 20260507102047 | 10 | 354 | 9.7 | 20.9 | 0.00 | 0.00 | 0.00 | 68 | 1018.3 |
| 20260507101543 | 10 | 0 | 19.3 | 22.5 | 0.00 | 0.00 | 0.00 | 68 | 1018.0 |
| 20260507101039 | 10 | 6 | 22.5 | 25.7 | 0.00 | 0.00 | 0.00 | 68 | 1018.0 |
| 20260507100537 | 10 | 10 | 14.5 | 20.9 | 0.00 | 0.00 | 0.00 | 68 | 1018.2 |
| 20260507100035 | 10 | 7 | 16.1 | 24.1 | 0.00 | 0.00 | 0.00 | 67 | 1017.7 |
| 20260507095532 | 10 | 21 | 14.5 | 27.4 | 0.00 | 0.00 | 0.00 | 67 | 1017.7 |
| 20260507095029 | 10 | 359 | 17.7 | 25.7 | 0.00 | 0.00 | 0.00 | 67 | 1017.8 |
| 20260507094525 | 10 | 340 | 11.3 | 27.4 | 0.00 | 0.00 | 0.00 | 66 | 1017.6 |
| 20260507094022 | 10 | 0 | 19.3 | 30.6 | 0.00 | 0.00 | 0.00 | 66 | 1017.8 |
| 20260507093519 | 10 | 0 | 30.6 | 30.6 | 0.00 | 0.00 | 0.00 | 66 | 1017.6 |
| 20260507093018 | 10 | 3 | 20.9 | 29.0 | 0.00 | 0.00 | 0.00 | 66 | 1017.7 |
| 20260507092514 | 10 | 352 | 19.3 | 32.2 | 0.00 | 0.00 | 0.00 | 66 | 1017.3 |
| 20260507092011 | 10 | 9 | 16.1 | 29.0 | 0.00 | 0.00 | 0.00 | 66 | 1017.2 |
| 20260507091508 | 10 | 12 | 14.5 | 25.7 | 0.00 | 0.00 | 0.00 | 66 | 1017.3 |
| 20260507091004 | 10 | 33 | 14.5 | 17.7 | 0.00 | 0.00 | 0.00 | 66 | 1017.2 |
| 20260507090459 | 10 | 349 | 25.7 | 29.0 | 0.00 | 0.00 | 0.00 | 65 | 1017.1 |
| 20260507085956 | 10 | 3 | 20.9 | 27.4 | 0.00 | 0.00 | 0.00 | 65 | 1017.3 |
| 20260507085454 | 10 | 349 | 29.0 | 35.4 | 0.00 | 0.00 | 0.00 | 64 | 1017.6 |
| 20260507084950 | 10 | 358 | 27.4 | 33.8 | 0.00 | 0.00 | 0.00 | 64 | 1017.0 |
| 20260507084447 | 11 | 359 | 22.5 | 32.2 | 0.00 | 0.00 | 0.00 | 64 | 1017.0 |
| 20260507083944 | 11 | 332 | 16.1 | 24.1 | 0.00 | 0.00 | 0.00 | 64 | 1017.0 |
| 20260507083440 | 11 | 8 | 24.1 | 29.0 | 0.00 | 0.00 | 0.00 | 63 | 1016.8 |
| 20260507082937 | 11 | 359 | 14.5 | 25.7 | 0.00 | 0.00 | 0.00 | 63 | 1016.8 |
| 20260507082433 | 11 | 6 | 12.9 | 29.0 | 0.00 | 0.00 | 0.00 | 63 | 1017.0 |
| 20260507081930 | 11 | 0 | 12.9 | 17.7 | 0.00 | 0.00 | 0.00 | 63 | 1016.9 |
| 20260507081426 | 11 | 358 | 16.1 | 25.7 | 0.00 | 0.00 | 0.00 | 63 | 1016.8 |
| 20260507080923 | 11 | 1 | 12.9 | 19.3 | 0.00 | 0.00 | 0.00 | 63 | 1016.9 |
| 20260507080419 | 11 | 10 | 12.9 | 22.5 | 0.00 | 0.00 | 0.00 | 63 | 1016.9 |
| 20260507075914 | 11 | 337 | 6.4 | 20.9 | 0.00 | 0.00 | 0.00 | 63 | 1016.8 |
| 20260507075411 | 11 | 330 | 9.7 | 29.0 | 0.00 | 0.00 | 0.00 | 63 | 1016.8 |
| 20260507074908 | 11 | 346 | 8.0 | 30.6 | 0.00 | 0.00 | 0.00 | 63 | 1016.6 |
| 20260507074404 | 11 | 15 | 8.0 | 20.9 | 0.00 | 0.00 | 0.00 | 62 | 1016.6 |
| 20260507073902 | 11 | 359 | 20.9 | 33.8 | 0.00 | 0.00 | 0.00 | 62 | 1016.3 |
| 20260507073358 | 11 | 345 | 22.5 | 33.8 | 0.00 | 0.00 | 0.00 | 61 | 1016.2 |
| 20260507072855 | 11 | 8 | 19.3 | 38.6 | 0.00 | 0.00 | 0.00 | 61 | 1016.0 |
| 20260507072353 | 11 | 4 | 20.9 | 41.8 | 0.00 | 0.00 | 0.00 | 61 | 1016.0 |
| 20260507071850 | 11 | 8 | 29.0 | 49.9 | 0.00 | 0.00 | 0.00 | 61 | 1015.5 |
| 20260507071347 | 11 | 9 | 32.2 | 43.5 | 0.00 | 0.00 | 0.00 | 62 | 1015.5 |
| 20260507070843 | 11 | 6 | 27.4 | 46.7 | 0.00 | 0.00 | 0.00 | 62 | 1015.6 |
| 20260507070341 | 11 | 356 | 40.2 | 48.3 | 0.00 | 0.00 | 0.00 | 61 | 1015.6 |
| 20260507065838 | 11 | 0 | 22.5 | 46.7 | 0.00 | 0.00 | 0.00 | 61 | 1015.5 |
| 20260507065334 | 11 | 344 | 25.7 | 40.2 | 0.00 | 0.00 | 0.00 | 61 | 1015.6 |
| 20260507064831 | 11 | 26 | 25.7 | 45.1 | 0.00 | 0.00 | 0.00 | 61 | 1015.4 |
| 20260507064330 | 11 | 15 | 16.1 | 46.7 | 0.00 | 0.00 | 0.00 | 61 | 1015.5 |
| 20260507063827 | 11 | 17 | 29.0 | 41.8 | 0.00 | 0.00 | 0.00 | 61 | 1015.4 |
| 20260507063324 | 11 | 1 | 35.4 | 48.3 | 0.00 | 0.00 | 0.00 | 61 | 1015.0 |
| 20260507062821 | 11 | 352 | 27.4 | 53.1 | 0.00 | 0.00 | 0.00 | 61 | 1014.7 |
| 20260507062318 | 11 | 16 | 32.2 | 48.3 | 0.00 | 0.00 | 0.00 | 61 | 1014.9 |
| 20260507061816 | 11 | 4 | 32.2 | 54.7 | 0.00 | 0.00 | 0.00 | 61 | 1014.6 |
| 20260507061314 | 11 | 4 | 38.6 | 53.1 | 0.00 | 0.00 | 0.00 | 60 | 1014.8 |
| 20260507060812 | 12 | 348 | 27.4 | 53.1 | 0.00 | 0.00 | 0.00 | 60 | 1014.8 |
| 20260507060308 | 12 | 33 | 30.6 | 41.8 | 0.00 | 0.00 | 0.00 | 60 | 1014.5 |
| 20260507055805 | 12 | 0 | 29.0 | 54.7 | 0.00 | 0.00 | 0.00 | 59 | 1014.5 |
| 20260507055300 | 12 | 11 | 29.0 | 56.3 | 0.00 | 0.00 | 0.00 | 58 | 1014.5 |
| 20260507054756 | 12 | 34 | 17.7 | 51.5 | 0.00 | 0.00 | 0.00 | 58 | 1014.6 |
| 20260507054253 | 13 | 6 | 38.6 | 51.5 | 0.00 | 0.00 | 0.00 | 57 | 1014.7 |
| 20260507053750 | 13 | 359 | 24.1 | 48.3 | 0.00 | 0.00 | 0.00 | 57 | 1014.6 |
| 20260507053248 | 13 | 18 | 12.9 | 48.3 | 0.00 | 0.00 | 0.00 | 56 | 1014.5 |
| 20260507052747 | 13 | 12 | 32.2 | 46.7 | 0.00 | 0.00 | 0.00 | 56 | 1014.4 |
| 20260507052243 | 13 | 23 | 20.9 | 46.7 | 0.00 | 0.00 | 0.00 | 55 | 1014.6 |
| 20260507051741 | 13 | 7 | 24.1 | 45.1 | 0.00 | 0.00 | 0.00 | 54 | 1014.5 |
| 20260507051237 | 14 | 18 | 27.4 | 40.2 | 0.00 | 0.00 | 0.00 | 53 | 1014.5 |
| 20260507050734 | 14 | 349 | 27.4 | 59.5 | 0.00 | 0.00 | 0.00 | 53 | 1014.4 |
| 20260507050231 | 15 | 25 | 19.3 | 45.1 | 0.00 | 0.00 | 0.00 | 50 | 1013.9 |
| 20260507045728 | 16 | 0 | 45.1 | 48.3 | 0.00 | 0.00 | 0.00 | 44 | 1013.7 |
| 20260507045224 | 14 | 22 | 24.1 | 29.0 | 0.00 | 0.00 | 0.00 | 41 | 1013.5 |
| 20260507044722 | 16 | 325 | 0.0 | 4.8 | 0.00 | 0.00 | 0.00 | 34 | 1012.6 |
| 20260507044218 | 16 | 307 | 3.2 | 6.4 | 0.00 | 0.00 | 0.00 | 33 | 1012.2 |
| 20260507043714 | 17 | 282 | 0.0 | 8.0 | 0.00 | 0.00 | 0.00 | 32 | 1012.1 |
| 20260507043211 | 17 | 323 | 3.2 | 6.4 | 0.00 | 0.00 | 0.00 | 32 | 1012.1 |
| 20260507042708 | 17 | 270 | 3.2 | 4.8 | 0.00 | 0.00 | 0.00 | 32 | 1011.9 |
| 20260507042202 | 17 | 235 | 0.0 | 4.8 | 0.00 | 0.00 | 0.00 | 32 | 1011.9 |
| 20260507041700 | 17 | 262 | 0.0 | 4.8 | 0.00 | 0.00 | 0.00 | 31 | 1012.1 |
| 20260507041156 | 17 | 270 | 4.8 | 6.4 | 0.00 | 0.00 | 0.00 | 30 | 1011.9 |
| 20260507040653 | 17 | 247 | 4.8 | 11.3 | 0.00 | 0.00 | 0.00 | 29 | 1011.8 |
| 20260507040150 | 17 | 259 | 6.4 | 9.7 | 0.00 | 0.00 | 0.00 | 30 | 1011.6 |
| 20260507035646 | 17 | 240 | 4.8 | 8.0 | 0.00 | 0.00 | 0.00 | 30 | 1011.9 |
| 20260507035142 | 18 | 235 | 8.0 | 9.7 | 0.00 | 0.00 | 0.00 | 30 | 1011.8 |
| 20260507034639 | 18 | 255 | 3.2 | 9.7 | 0.00 | 0.00 | 0.00 | 30 | 1011.4 |
| 20260507034136 | 18 | 231 | 6.4 | 9.7 | 0.00 | 0.00 | 0.00 | 30 | 1011.3 |
| 20260507033635 | 18 | 243 | 4.8 | 9.7 | 0.00 | 0.00 | 0.00 | 30 | 1011.4 |
| 20260507033131 | 17 | 239 | 6.4 | 9.7 | 0.00 | 0.00 | 0.00 | 30 | 1011.4 |
| 20260507032629 | 18 | 255 | 6.4 | 9.7 | 0.00 | 0.00 | 0.00 | 30 | 1011.2 |
| 20260507032125 | 17 | 239 | 3.2 | 8.0 | 0.00 | 0.00 | 0.00 | 31 | 1011.2 |
| 20260507031622 | 18 | 234 | 4.8 | 8.0 | 0.00 | 0.00 | 0.00 | 30 | 1011.2 |
| 20260507031118 | 18 | 254 | 4.8 | 6.4 | 0.00 | 0.00 | 0.00 | 30 | 1011.0 |
| 20260507030615 | 18 | 258 | 3.2 | 8.0 | 0.00 | 0.00 | 0.00 | 29 | 1011.0 |
| 20260507030113 | 18 | 250 | 6.4 | 6.4 | 0.00 | 0.00 | 0.00 | 28 | 1011.0 |
| 20260507025610 | 19 | 251 | 3.2 | 6.4 | 0.00 | 0.00 | 0.00 | 27 | 1010.9 |
| 20260507025107 | 19 | 216 | 3.2 | 4.8 | 0.00 | 0.00 | 0.00 | 27 | 1011.0 |
| 20260507024605 | 20 | 270 | 0.0 | 3.2 | 0.00 | 0.00 | 0.00 | 26 | 1010.3 |
| 20260507024102 | 20 | 237 | 3.2 | 4.8 | 0.00 | 0.00 | 0.00 | 25 | 1010.9 |
| 20260507023557 | 20 | 270 | 1.6 | 4.8 | 0.00 | 0.00 | 0.00 | 25 | 1010.7 |
| 20260507023055 | 21 | 270 | 0.0 | 4.8 | 0.00 | 0.00 | 0.00 | 24 | 1010.3 |
| 20260507022551 | 21 | 286 | 1.6 | 8.0 | 0.00 | 0.00 | 0.00 | 23 | 1010.2 |
| 20260507022046 | 21 | 235 | 3.2 | 8.0 | 0.00 | 0.00 | 0.00 | 23 | 1010.2 |
| 20260507021543 | 21 | 248 | 4.8 | 9.7 | 0.00 | 0.00 | 0.00 | 22 | 1010.1 |
| 20260507021039 | 22 | 232 | 6.4 | 6.4 | 0.00 | 0.00 | 0.00 | 21 | 1010.0 |
| 20260507020537 | 22 | 252 | 4.8 | 11.3 | 0.00 | 0.00 | 0.00 | 20 | 1010.0 |
| 20260507020033 | 22 | 266 | 4.8 | 11.3 | 0.00 | 0.00 | 0.00 | 20 | 1010.0 |
| 20260507015532 | 22 | 259 | 0.0 | 11.3 | 0.00 | 0.00 | 0.00 | 19 | 1010.0 |
| 20260507015029 | 23 | 229 | 8.0 | 8.0 | 0.00 | 0.00 | 0.00 | 19 | 1009.9 |
| 20260507014526 | 23 | 255 | 6.4 | 11.3 | 0.00 | 0.00 | 0.00 | 18 | 1009.7 |
| 20260507014021 | 23 | 260 | 6.4 | 12.9 | 0.00 | 0.00 | 0.00 | 18 | 1009.5 |
| 20260507013518 | 23 | 287 | 4.8 | 8.0 | 0.00 | 0.00 | 0.00 | 18 | 1009.5 |
| 20260507013016 | 24 | 302 | 4.8 | 8.0 | 0.00 | 0.00 | 0.00 | 18 | 1009.5 |
| 20260507012513 | 25 | 252 | 4.8 | 11.3 | 0.00 | 0.00 | 0.00 | 17 | 1009.6 |
| 20260507012009 | 25 | 297 | 4.8 | 9.7 | 0.00 | 0.00 | 0.00 | 16 | 1009.4 |
| 20260507011506 | 25 | 257 | 11.3 | 17.7 | 0.00 | 0.00 | 0.00 | 15 | 1009.2 |
| 20260507011002 | 25 | 278 | 8.0 | 16.1 | 0.00 | 0.00 | 0.00 | 15 | 1009.2 |
| 20260507010456 | 25 | 254 | 8.0 | 19.3 | 0.00 | 0.00 | 0.00 | 15 | 1009.2 |
| 20260507005953 | 25 | 264 | 8.0 | 19.3 | 0.00 | 0.00 | 0.00 | 15 | 1008.9 |
| 20260507005451 | 25 | 256 | 4.8 | 14.5 | 0.00 | 0.00 | 0.00 | 15 | 1009.0 |
| 20260507004947 | 26 | 270 | 4.8 | 16.1 | 0.00 | 0.00 | 0.00 | 14 | 1009.1 |
| 20260507004444 | 26 | 273 | 4.8 | 17.7 | 0.00 | 0.00 | 0.00 | 14 | 1008.9 |
| 20260507003942 | 26 | 233 | 24.1 | 24.1 | 0.00 | 0.00 | 0.00 | 14 | 1008.8 |
| 20260507003437 | 26 | 262 | 6.4 | 19.3 | 0.00 | 0.00 | 0.00 | 14 | 1008.9 |
| 20260507002932 | 26 | 270 | 9.7 | 27.4 | 0.00 | 0.00 | 0.00 | 14 | 1008.8 |
| 20260507002428 | 26 | 241 | 6.4 | 25.7 | 0.00 | 0.00 | 0.00 | 14 | 1008.8 |
| 20260507001926 | 26 | 232 | 12.9 | 29.0 | 0.00 | 0.00 | 0.00 | 14 | 1008.8 |
| 20260507001422 | 27 | 298 | 4.8 | 22.5 | 0.00 | 0.00 | 0.00 | 14 | 1008.7 |
| 20260507000920 | 27 | 262 | 11.3 | 32.2 | 0.00 | 0.00 | 0.00 | 14 | 1008.7 |
| 20260507000415 | 27 | 323 | 6.4 | 22.5 | 0.00 | 0.00 | 0.00 | 14 | 1008.5 |
| 20260506235911 | 27 | 247 | 12.9 | 30.6 | 0.00 | 0.00 | 0.00 | 14 | 1008.3 |
| 20260506235409 | 27 | 272 | 12.9 | 24.1 | 0.00 | 0.00 | 0.00 | 13 | 1008.4 |
| 20260506234904 | 27 | 295 | 9.7 | 20.9 | 0.00 | 0.00 | 0.00 | 13 | 1008.5 |
| 20260506234402 | 27 | 319 | 3.2 | 24.1 | 0.00 | 0.00 | 0.00 | 13 | 1008.4 |
| 20260506233859 | 27 | 254 | 4.8 | 20.9 | 0.00 | 0.00 | 0.00 | 14 | 1008.4 |
| 20260506233355 | 27 | 261 | 3.2 | 19.3 | 0.00 | 0.00 | 0.00 | 13 | 1008.4 |
| 20260506232852 | 27 | 253 | 9.7 | 24.1 | 0.00 | 0.00 | 0.00 | 13 | 1008.6 |
| 20260506232348 | 27 | 263 | 14.5 | 27.4 | 0.00 | 0.00 | 0.00 | 13 | 1008.3 |
| 20260506231844 | 27 | 257 | 9.7 | 17.7 | 0.00 | 0.00 | 0.00 | 14 | 1008.0 |
| 20260506231342 | 27 | 239 | 9.7 | 37.0 | 0.00 | 0.00 | 0.00 | 14 | 1008.4 |
| 20260506230839 | 27 | 250 | 4.8 | 22.5 | 0.00 | 0.00 | 0.00 | 13 | 1008.3 |
| 20260506230336 | 27 | 294 | 8.0 | 24.1 | 0.00 | 0.00 | 0.00 | 13 | 1008.2 |
| 20260506225832 | 27 | 238 | 6.4 | 27.4 | 0.00 | 0.00 | 0.00 | 13 | 1008.2 |
| 20260506225330 | 27 | 235 | 8.0 | 17.7 | 0.00 | 0.00 | 0.00 | 13 | 1008.0 |
| 20260506224827 | 27 | 262 | 17.7 | 32.2 | 0.00 | 0.00 | 0.00 | 13 | 1007.9 |
| 20260506224324 | 28 | 257 | 8.0 | 16.1 | 0.00 | 0.00 | 0.00 | 14 | 1008.2 |
| 20260506223820 | 27 | 251 | 20.9 | 22.5 | 0.00 | 0.00 | 0.00 | 14 | 1008.0 |
| 20260506223315 | 27 | 265 | 9.7 | 16.1 | 0.00 | 0.00 | 0.00 | 14 | 1008.0 |
| 20260506222813 | 27 | 254 | 11.3 | 20.9 | 0.00 | 0.00 | 0.00 | 14 | 1008.0 |
| 20260506222308 | 27 | 268 | 8.0 | 27.4 | 0.00 | 0.00 | 0.00 | 14 | 1008.2 |
| 20260506221806 | 27 | 238 | 11.3 | 35.4 | 0.00 | 0.00 | 0.00 | 14 | 1007.9 |
| 20260506221303 | 27 | 238 | 11.3 | 25.7 | 0.00 | 0.00 | 0.00 | 14 | 1008.3 |
| 20260506220801 | 27 | 266 | 9.7 | 22.5 | 0.00 | 0.00 | 0.00 | 14 | 1008.3 |
| 20260506220255 | 27 | 245 | 8.0 | 24.1 | 0.00 | 0.00 | 0.00 | 14 | 1008.0 |
| 20260506215753 | 27 | 265 | 8.0 | 27.4 | 0.00 | 0.00 | 0.00 | 14 | 1008.3 |
| 20260506215248 | 27 | 236 | 14.5 | 38.6 | 0.00 | 0.00 | 0.00 | 14 | 1008.2 |
| 20260506214745 | 27 | 229 | 8.0 | 19.3 | 0.00 | 0.00 | 0.00 | 14 | 1008.2 |
| 20260506214242 | 26 | 248 | 12.9 | 27.4 | 0.00 | 0.00 | 0.00 | 15 | 1008.2 |
| 20260506213740 | 27 | 241 | 24.1 | 37.0 | 0.00 | 0.00 | 0.00 | 15 | 1008.3 |
| 20260506213232 | 26 | 255 | 17.7 | 41.8 | 0.00 | 0.00 | 0.00 | 14 | 1008.2 |
| 20260506212729 | 27 | 213 | 9.7 | 22.5 | 0.00 | 0.00 | 0.00 | 15 | 1008.2 |
| 20260506212224 | 27 | 260 | 9.7 | 25.7 | 0.00 | 0.00 | 0.00 | 14 | 1008.5 |
| 20260506211719 | 27 | 279 | 8.0 | 27.4 | 0.00 | 0.00 | 0.00 | 15 | 1008.5 |
| 20260506211216 | 27 | 311 | 4.8 | 17.7 | 0.00 | 0.00 | 0.00 | 16 | 1008.6 |
| 20260506210713 | 27 | 240 | 11.3 | 20.9 | 0.00 | 0.00 | 0.00 | 15 | 1008.7 |
| 20260506210210 | 27 | 255 | 14.5 | 30.6 | 0.00 | 0.00 | 0.00 | 16 | 1008.7 |
| 20260506205707 | 26 | 254 | 8.0 | 22.5 | 0.00 | 0.00 | 0.00 | 15 | 1008.6 |
| 20260506205202 | 27 | 264 | 16.1 | 20.9 | 0.00 | 0.00 | 0.00 | 15 | 1008.8 |
| 20260506204700 | 27 | 270 | 6.4 | 20.9 | 0.00 | 0.00 | 0.00 | 16 | 1008.9 |
| 20260506204156 | 26 | 268 | 12.9 | 29.0 | 0.00 | 0.00 | 0.00 | 17 | 1008.7 |
| 20260506203655 | 26 | 229 | 8.0 | 19.3 | 0.00 | 0.00 | 0.00 | 17 | 1008.7 |
| 20260506203152 | 27 | 273 | 20.9 | 20.9 | 0.00 | 0.00 | 0.00 | 16 | 1008.9 |
| 20260506202650 | 27 | 274 | 8.0 | 20.9 | 0.00 | 0.00 | 0.00 | 16 | 1008.9 |
| 20260506202145 | 27 | 239 | 8.0 | 17.7 | 0.00 | 0.00 | 0.00 | 17 | 1009.0 |
| 20260506201642 | 26 | 257 | 19.3 | 22.5 | 0.00 | 0.00 | 0.00 | 16 | 1008.8 |
| 20260506201139 | 27 | 268 | 11.3 | 24.1 | 0.00 | 0.00 | 0.00 | 17 | 1008.8 |
| 20260506200636 | 26 | 24 | 3.2 | 22.5 | 0.00 | 0.00 | 0.00 | 17 | 1009.0 |
| 20260506200132 | 26 | 303 | 8.0 | 25.7 | 0.00 | 0.00 | 0.00 | 17 | 1008.9 |
| 20260506195629 | 26 | 274 | 8.0 | 22.5 | 0.00 | 0.00 | 0.00 | 16 | 1008.9 |
| 20260506195125 | 26 | 287 | 6.4 | 24.1 | 0.00 | 0.00 | 0.00 | 17 | 1008.9 |
| 20260506194623 | 26 | 275 | 9.7 | 27.4 | 0.00 | 0.00 | 0.00 | 17 | 1009.0 |
| 20260506194119 | 26 | 246 | 14.5 | 16.1 | 0.00 | 0.00 | 0.00 | 18 | 1009.0 |
| 20260506193617 | 26 | 264 | 14.5 | 32.2 | 0.00 | 0.00 | 0.00 | 18 | 1009.2 |
| 20260506193114 | 26 | 279 | 9.7 | 22.5 | 0.00 | 0.00 | 0.00 | 15 | 1009.5 |
| 20260506192611 | 26 | 232 | 19.3 | 19.3 | 0.00 | 0.00 | 0.00 | 16 | 1009.5 |
| 20260506192106 | 26 | 287 | 3.2 | 19.3 | 0.00 | 0.00 | 0.00 | 16 | 1009.5 |
| 20260506191603 | 26 | 247 | 22.5 | 24.1 | 0.00 | 0.00 | 0.00 | 16 | 1009.1 |
| 20260506191059 | 25 | 282 | 16.1 | 29.0 | 0.00 | 0.00 | 0.00 | 16 | 1009.7 |
| 20260506190557 | 26 | 248 | 14.5 | 30.6 | 0.00 | 0.00 | 0.00 | 17 | 1009.1 |
| 20260506190053 | 25 | 235 | 16.1 | 22.5 | 0.00 | 0.00 | 0.00 | 18 | 1009.9 |
| 20260506185551 | 26 | 290 | 16.1 | 16.1 | 0.00 | 0.00 | 0.00 | 15 | 1009.7 |
| 20260506185047 | 26 | 280 | 6.4 | 22.5 | 0.00 | 0.00 | 0.00 | 16 | 1009.7 |
| 20260506184544 | 25 | 251 | 9.7 | 17.7 | 0.00 | 0.00 | 0.00 | 17 | 1009.7 |
| 20260506184042 | 26 | 340 | 1.6 | 16.1 | 0.00 | 0.00 | 0.00 | 16 | 1009.9 |
| 20260506183538 | 25 | 272 | 11.3 | 24.1 | 0.00 | 0.00 | 0.00 | 18 | 1009.9 |
| 20260506183034 | 26 | 270 | 0.0 | 20.9 | 0.00 | 0.00 | 0.00 | 16 | 1009.8 |
| 20260506182532 | 25 | 261 | 8.0 | 17.7 | 0.00 | 0.00 | 0.00 | 18 | 1010.0 |
| 20260506182029 | 25 | 259 | 8.0 | 24.1 | 0.00 | 0.00 | 0.00 | 17 | 1010.1 |
| 20260506181527 | 25 | 352 | 3.2 | 14.5 | 0.00 | 0.00 | 0.00 | 18 | 1010.1 |
| 20260506181023 | 25 | 256 | 11.3 | 17.7 | 0.00 | 0.00 | 0.00 | 18 | 1010.3 |
| 20260506180520 | 25 | 260 | 17.7 | 17.7 | 0.00 | 0.00 | 0.00 | 19 | 1010.0 |
| 20260506180016 | 25 | 276 | 11.3 | 19.3 | 0.00 | 0.00 | 0.00 | 19 | 1010.3 |
| 20260506175513 | 25 | 267 | 14.5 | 20.9 | 0.00 | 0.00 | 0.00 | 19 | 1010.1 |
| 20260506175010 | 25 | 239 | 6.4 | 32.2 | 0.00 | 0.00 | 0.00 | 18 | 1010.3 |
| 20260506174508 | 25 | 270 | 3.2 | 17.7 | 0.00 | 0.00 | 0.00 | 20 | 1010.4 |
| 20260506174004 | 25 | 352 | 0.0 | 12.9 | 0.00 | 0.00 | 0.00 | 22 | 1010.6 |
| 20260506173502 | 23 | 190 | 4.8 | 8.0 | 0.00 | 0.00 | 0.00 | 31 | 1010.4 |
| 20260506172958 | 23 | 90 | 0.0 | 4.8 | 0.00 | 0.00 | 0.00 | 33 | 1011.0 |
| 20260506172455 | 23 | 157 | 1.6 | 6.4 | 0.00 | 0.00 | 0.00 | 35 | 1010.6 |
| 20260506171946 | 22 | 223 | 6.4 | 11.3 | 0.00 | 0.00 | 0.00 | 35 | 1010.9 |
| 20260506171444 | 23 | 166 | 0.0 | 3.2 | 0.00 | 0.00 | 0.00 | 34 | 1010.9 |
| 20260506170941 | 22 | 259 | 4.8 | 8.0 | 0.00 | 0.00 | 0.00 | 36 | 1011.0 |
| 20260506170437 | 22 | 249 | 11.3 | 11.3 | 0.00 | 0.00 | 0.00 | 35 | 1011.1 |
| 20260506165931 | 21 | 306 | 0.0 | 12.9 | 0.00 | 0.00 | 0.00 | 38 | 1011.1 |
| 20260506165429 | 21 | 4 | 3.2 | 9.7 | 0.00 | 0.00 | 0.00 | 38 | 1011.3 |
| 20260506164924 | 21 | 324 | 3.2 | 9.7 | 0.00 | 0.00 | 0.00 | 37 | 1011.2 |
| 20260506164421 | 21 | 17 | 6.4 | 8.0 | 0.00 | 0.00 | 0.00 | 38 | 1011.3 |
| 20260506163919 | 20 | 315 | 3.2 | 6.4 | 0.00 | 0.00 | 0.00 | 39 | 1011.3 |
| 20260506163413 | 21 | 1 | 9.7 | 9.7 | 0.00 | 0.00 | 0.00 | 38 | 1011.2 |
| 20260506162908 | 20 | 36 | 9.7 | 11.3 | 0.00 | 0.00 | 0.00 | 40 | 1011.3 |
| 20260506162406 | 21 | 143 | 0.0 | 9.7 | 0.00 | 0.00 | 0.00 | 40 | 1011.4 |
| 20260506161858 | 21 | 74 | 0.0 | 6.4 | 0.00 | 0.00 | 0.00 | 40 | 1011.4 |
| 20260506161356 | 20 | 115 | 3.2 | 6.4 | 0.00 | 0.00 | 0.00 | 44 | 1011.4 |
| 20260506160853 | 20 | 69 | 0.0 | 4.8 | 0.00 | 0.00 | 0.00 | 44 | 1011.4 |
| 20260506160350 | 19 | 23 | 6.4 | 9.7 | 0.00 | 0.00 | 0.00 | 47 | 1011.5 |
| 20260506155848 | 20 | 36 | 4.8 | 6.4 | 0.00 | 0.00 | 0.00 | 46 | 1011.5 |
| 20260506155345 | 20 | 100 | 8.0 | 9.7 | 0.00 | 0.00 | 0.00 | 44 | 1011.8 |
| 20260506153502 | 19 | 0 | 0.0 | 3.2 | 0.00 | 0.00 | 0.00 | 47 | 1011.8 |
| 20260506153000 | 18 | 277 | 0.0 | 4.8 | 0.00 | 0.00 | 0.00 | 48 | 1012.0 |
| 20260506152456 | 18 | 0 | 0.0 | 3.2 | 0.00 | 0.00 | 0.00 | 48 | 1011.6 |
| 20260506151954 | 17 | 17 | 6.4 | 11.3 | 0.00 | 0.00 | 0.00 | 51 | 1011.9 |
| 20260506151452 | 17 | 0 | 3.2 | 9.7 | 0.00 | 0.00 | 0.00 | 52 | 1011.8 |
| 20260506150949 | 17 | 19 | 6.4 | 8.0 | 0.00 | 0.00 | 0.00 | 52 | 1011.8 |
| 20260506150445 | 16 | 7 | 6.4 | 11.3 | 0.00 | 0.00 | 0.00 | 54 | 1011.9 |
| 20260506145942 | 16 | 0 | 4.8 | 11.3 | 0.00 | 0.00 | 0.00 | 53 | 1011.8 |
| 20260506145438 | 16 | 337 | 6.4 | 12.9 | 0.00 | 0.00 | 0.00 | 55 | 1011.9 |
| 20260506144936 | 16 | 30 | 8.0 | 11.3 | 0.00 | 0.00 | 0.00 | 56 | 1012.1 |
| 20260506144432 | 16 | 9 | 9.7 | 12.9 | 0.00 | 0.00 | 0.00 | 55 | 1011.9 |
| 20260506143931 | 16 | 341 | 4.8 | 12.9 | 0.00 | 0.00 | 0.00 | 56 | 1012.0 |
| 20260506143428 | 16 | 26 | 0.0 | 11.3 | 0.00 | 0.00 | 0.00 | 57 | 1012.1 |
| 20260506142926 | 15 | 1 | 9.7 | 11.3 | 0.00 | 0.00 | 0.00 | 57 | 1011.8 |
| 20260506142424 | 15 | 7 | 9.7 | 12.9 | 0.00 | 0.00 | 0.00 | 58 | 1012.2 |
| 20260506141921 | 15 | 12 | 9.7 | 14.5 | 0.00 | 0.00 | 0.00 | 57 | 1012.0 |
| 20260506141419 | 15 | 1 | 9.7 | 12.9 | 0.00 | 0.00 | 0.00 | 58 | 1012.1 |
| 20260506140918 | 15 | 3 | 12.9 | 16.1 | 0.00 | 0.00 | 0.00 | 58 | 1012.4 |
| 20260506140414 | 15 | 355 | 11.3 | 12.9 | 0.00 | 0.00 | 0.00 | 59 | 1012.3 |
| 20260506135911 | 15 | 6 | 8.0 | 14.5 | 0.00 | 0.00 | 0.00 | 60 | 1012.2 |
| 20260506135408 | 15 | 345 | 8.0 | 12.9 | 0.00 | 0.00 | 0.00 | 59 | 1012.3 |
| 20260506134904 | 15 | 3 | 8.0 | 11.3 | 0.00 | 0.00 | 0.00 | 60 | 1012.1 |
| 20260506134400 | 15 | 349 | 3.2 | 9.7 | 0.00 | 0.00 | 0.00 | 59 | 1012.0 |
| 20260506133857 | 15 | 303 | 3.2 | 8.0 | 0.00 | 0.00 | 0.00 | 61 | 1012.2 |
| 20260506133354 | 14 | 345 | 0.0 | 12.9 | 0.00 | 0.00 | 0.00 | 61 | 1011.6 |
| 20260506132850 | 14 | 350 | 4.8 | 12.9 | 0.00 | 0.00 | 0.00 | 61 | 1011.5 |
| 20260506132348 | 14 | 332 | 3.2 | 8.0 | 0.00 | 0.00 | 0.00 | 62 | 1011.5 |
| 20260506131846 | 14 | 2 | 4.8 | 8.0 | 0.00 | 0.00 | 0.00 | 63 | 1011.8 |
| 20260506131342 | 15 | 0 | 3.2 | 3.2 | 0.00 | 0.00 | 0.00 | 62 | 1011.6 |
| 20260506130839 | 15 | 24 | 3.2 | 3.2 | 0.00 | 0.00 | 0.00 | 64 | 1011.5 |
| 20260506130335 | 14 | 131 | 0.0 | 3.2 | 0.00 | 0.00 | 0.00 | 66 | 1011.3 |
| 20260506125833 | 13 | 0 | 1.6 | 6.4 | 0.00 | 0.00 | 0.00 | 65 | 1011.2 |
| 20260506125332 | 13 | 90 | 0.0 | 0.0 | 0.00 | 0.00 | 0.00 | 65 | 1011.2 |
| 20260506124830 | 13 | 77 | 0.0 | 3.2 | 0.00 | 0.00 | 0.00 | 68 | 1011.3 |
| 20260506124326 | 12 | 14 | 0.0 | 1.6 | 0.00 | 0.00 | 0.00 | 68 | 1011.2 |
| 20260506123824 | 12 | 99 | 0.0 | 4.8 | 0.00 | 0.00 | 0.00 | 70 | 1011.2 |
| 20260506123322 | 11 | 3 | 3.2 | 6.4 | 0.00 | 0.00 | 0.00 | 71 | 1011.3 |
| 20260506122819 | 11 | 41 | 0.0 | 3.2 | 0.00 | 0.00 | 0.00 | 72 | 1011.0 |
| 20260506122316 | 11 | 26 | 4.8 | 4.8 | 0.00 | 0.00 | 0.00 | 71 | 1011.0 |
| 20260506121814 | 11 | 8 | 0.0 | 1.6 | 0.00 | 0.00 | 0.00 | 71 | 1011.1 |
| 20260506121311 | 11 | 0 | 3.2 | 6.4 | 0.00 | 0.00 | 0.00 | 70 | 1010.9 |
| 20260506120808 | 12 | 0 | 3.2 | 6.4 | 0.00 | 0.00 | 0.00 | 70 | 1010.8 |
| 20260506120306 | 11 | 15 | 4.8 | 6.4 | 0.00 | 0.00 | 0.00 | 71 | 1010.7 |
| 20260506115803 | 11 | 0 | 3.2 | 6.4 | 0.00 | 0.00 | 0.00 | 70 | 1010.6 |
| 20260506115306 | 11 | 351 | 4.8 | 6.4 | 0.00 | 0.00 | 0.00 | 70 | 1010.6 |
| 20260506114759 | 11 | 6 | 6.4 | 6.4 | 0.00 | 0.00 | 0.00 | 71 | 1010.4 |
| 20260506114256 | 11 | 16 | 6.4 | 6.4 | 0.00 | 0.00 | 0.00 | 70 | 1010.3 |
| 20260506113755 | 12 | 0 | 8.0 | 8.0 | 0.00 | 0.00 | 0.00 | 68 | 1010.4 |
| 20260506113252 | 12 | 35 | 0.0 | 3.2 | 0.00 | 0.00 | 0.00 | 68 | 1010.7 |
| 20260506112748 | 12 | 5 | 3.2 | 8.0 | 0.00 | 0.00 | 0.00 | 67 | 1010.2 |
| 20260506112246 | 12 | 18 | 4.8 | 8.0 | 0.00 | 0.00 | 0.00 | 65 | 1010.3 |